DW4078 Weather Reports


Display with metric or nautical units.
time (UTC)temp
F
wind
direction
speed
MPH
gust
MPH
rain 1hr
in
rain 24hr
in
rain mn
in
humidity
%
barometer
mb
20260505191603 62 218 2.0 6.0 0.01 0.02 0.01 79 1007.8
20260505191503 62 220 2.0 6.0 0.01 0.02 0.01 80 1007.9
20260505191103 62 213 2.0 6.0 0.01 0.02 0.01 78 1008.0
20260505190803 62 212 2.0 6.0 0.00 0.01 0.00 79 1008.1
20260505190503 62 213 2.0 7.0 0.00 0.01 0.00 77 1007.9
20260505190403 63 221 2.0 8.0 0.00 0.01 0.00 77 1007.8
20260505190203 63 221 3.0 8.0 0.00 0.01 0.00 77 1008.2
20260505185924 63 217 3.0 9.0 0.00 0.01 0.00 76 1008.0
20260505185324 64 194 3.0 9.0 0.00 0.01 0.00 72 1008.0
20260505185103 65 207 4.0 11.0 0.00 0.01 0.00 70 1008.0
20260505184824 65 221 4.0 11.0 0.00 0.01 0.00 70 1008.0
20260505184524 65 229 4.0 11.0 0.00 0.01 0.00 69 1008.1
20260505184424 65 234 5.0 11.0 0.00 0.01 0.00 68 1007.9
20260505184203 65 239 4.0 11.0 0.00 0.01 0.00 68 1008.1
20260505184103 65 235 4.0 10.0 0.00 0.01 0.00 68 1008.1
20260505183903 65 230 5.0 11.0 0.00 0.01 0.00 68 1008.1
20260505183724 65 227 5.0 11.0 0.00 0.01 0.00 68 1008.1
20260505183503 65 227 5.0 11.0 0.00 0.01 0.00 67 1008.2
20260505183403 65 228 5.0 11.0 0.00 0.01 0.00 68 1008.2
20260505183303 65 227 5.0 14.0 0.00 0.01 0.00 67 1008.1
20260505183103 65 231 5.0 14.0 0.00 0.01 0.00 67 1008.2
20260505183024 65 237 5.0 14.0 0.00 0.01 0.00 67 1008.0
20260505182903 65 241 5.0 14.0 0.00 0.01 0.00 67 1008.1
20260505182824 65 247 5.0 14.0 0.00 0.01 0.00 67 1008.2
20260505182603 65 252 4.0 14.0 0.00 0.01 0.00 67 1008.1
20260505182424 66 256 4.0 14.0 0.00 0.01 0.00 67 1008.1
20260505182103 65 246 4.0 9.0 0.00 0.01 0.00 67 1008.0
20260505182003 65 245 4.0 9.0 0.00 0.01 0.00 67 1008.0
20260505181803 65 236 4.0 10.0 0.00 0.01 0.00 67 1008.1
20260505181603 65 232 4.0 10.0 0.00 0.01 0.00 67 1008.0
20260505181303 65 216 4.0 13.0 0.00 0.01 0.00 67 1008.1
20260505181203 65 228 5.0 13.0 0.00 0.01 0.00 67 1008.1
20260505181103 65 233 5.0 13.0 0.00 0.01 0.00 67 1008.1
20260505181003 65 230 5.0 13.0 0.00 0.01 0.00 67 1008.1
20260505180903 65 220 5.0 13.0 0.00 0.01 0.00 67 1008.1
20260505180824 65 226 5.0 13.0 0.00 0.01 0.00 67 1007.9
20260505180703 65 231 5.0 13.0 0.00 0.01 0.00 67 1008.0
20260505180603 65 226 5.0 13.0 0.00 0.01 0.00 66 1007.9
20260505180403 66 219 5.0 13.0 0.00 0.01 0.00 66 1007.9
20260505180203 66 218 5.0 13.0 0.00 0.01 0.00 66 1008.0
20260505175903 66 217 5.0 13.0 0.00 0.01 0.00 65 1008.0
20260505175703 66 212 5.0 13.0 0.00 0.01 0.00 65 1007.9
20260505175603 66 207 5.0 13.0 0.00 0.01 0.00 65 1007.7
20260505175403 66 204 5.0 11.0 0.00 0.01 0.00 65 1008.0
20260505175305 66 212 4.0 11.0 0.00 0.01 0.00 65 1007.8
20260505174903 66 203 3.0 8.0 0.00 0.01 0.00 64 1007.8
20260505174603 67 220 4.0 8.0 0.00 0.01 0.00 64 1007.8
20260505174424 67 229 3.0 8.0 0.00 0.01 0.00 64 1007.9
20260505174103 66 238 4.0 8.0 0.00 0.01 0.00 65 1007.7
20260505173903 66 227 4.0 8.0 0.00 0.01 0.00 65 1007.6
20260505173603 66 233 4.0 9.0 0.00 0.01 0.00 65 1007.7
20260505173403 66 234 4.0 9.0 0.00 0.01 0.00 66 1007.9
20260505173124 66 235 4.0 10.0 0.00 0.01 0.00 65 1007.7
20260505172903 66 253 5.0 16.0 0.00 0.01 0.00 65 1007.9
20260505172824 66 256 5.0 16.0 0.00 0.01 0.00 65 1007.8
20260505172403 65 259 6.0 16.0 0.00 0.01 0.00 65 1007.7
20260505172103 65 262 6.0 16.0 0.00 0.01 0.00 65 1007.8
20260505172003 65 263 6.0 11.0 0.00 0.01 0.00 65 1007.7
20260505171903 66 257 6.0 11.0 0.00 0.01 0.00 66 1007.7
20260505171603 66 250 5.0 11.0 0.00 0.01 0.00 65 1007.7
20260505171503 66 251 5.0 13.0 0.00 0.01 0.00 65 1007.9
20260505171103 66 254 4.0 13.0 0.00 0.01 0.00 64 1007.6
20260505170903 66 240 4.0 13.0 0.00 0.01 0.00 64 1007.6
20260505170703 66 235 4.0 13.0 0.00 0.01 0.00 64 1007.6
20260505170403 66 240 5.0 11.0 0.00 0.01 0.00 64 1007.7
20260505170203 66 236 5.0 11.0 0.00 0.01 0.00 63 1007.7
20260505170024 67 232 5.0 11.0 0.00 0.01 0.00 64 1007.6
20260505165803 67 237 5.0 11.0 0.00 0.01 0.00 63 1007.8
20260505165503 67 226 5.0 11.0 0.00 0.01 0.00 63 1007.6
20260505165203 67 221 5.0 13.0 0.00 0.01 0.00 63 1007.6
20260505164903 67 229 5.0 13.0 0.00 0.01 0.00 62 1007.6
20260505164824 67 224 5.0 13.0 0.00 0.01 0.00 63 1007.6
20260505164703 67 223 5.0 13.0 0.00 0.01 0.00 63 1007.7
20260505164603 67 227 5.0 13.0 0.00 0.01 0.00 62 1007.5
20260505164303 67 235 6.0 17.0 0.00 0.01 0.00 62 1007.8
20260505164103 67 229 6.0 17.0 0.00 0.01 0.00 62 1007.6
20260505163903 67 225 6.0 17.0 0.00 0.01 0.00 62 1007.6
20260505163703 67 232 7.0 17.0 0.00 0.01 0.00 61 1007.6
20260505163603 67 234 7.0 17.0 0.00 0.01 0.00 61 1007.6
20260505163303 68 237 5.0 17.0 0.00 0.01 0.00 60 1007.6
20260505163203 68 238 6.0 17.0 0.00 0.01 0.00 60 1007.7
20260505162803 69 245 5.0 16.0 0.00 0.01 0.00 60 1007.4
20260505162603 69 235 5.0 16.0 0.00 0.01 0.00 60 1007.6
20260505162424 68 233 6.0 16.0 0.00 0.01 0.00 60 1007.4
20260505162306 68 231 6.0 16.0 0.00 0.01 0.00 59 1007.3
20260505162203 69 224 5.0 16.0 0.00 0.01 0.00 59 1007.5
20260505162103 69 214 5.0 16.0 0.00 0.01 0.00 59 1007.4
20260505162003 69 207 5.0 15.0 0.00 0.01 0.00 59 1007.6
20260505161903 69 205 6.0 15.0 0.00 0.01 0.00 59 1007.3
20260505161803 69 208 6.0 15.0 0.00 0.01 0.00 59 1007.3
20260505161703 69 214 6.0 15.0 0.00 0.01 0.00 59 1007.3
20260505161624 69 215 6.0 15.0 0.00 0.01 0.00 58 1007.3
20260505161103 70 230 6.0 16.0 0.00 0.01 0.00 57 1007.5
20260505161003 70 235 6.0 16.0 0.00 0.01 0.00 58 1007.2
20260505160703 69 246 7.0 16.0 0.00 0.01 0.00 57 1007.2
20260505160503 69 251 6.0 16.0 0.00 0.01 0.00 57 1007.2
20260505160424 69 244 6.0 16.0 0.00 0.01 0.00 57 1007.1
20260505160303 69 234 6.0 13.0 0.00 0.01 0.00 58 1007.4
20260505153303 68 224 4.0 15.0 0.00 0.01 0.00 58 1006.6
20260505153224 68 227 5.0 15.0 0.00 0.01 0.00 58 1006.7
20260505152903 69 235 6.0 19.0 0.00 0.01 0.00 58 1006.7
20260505152703 69 242 6.0 19.0 0.00 0.01 0.00 58 1006.7
20260505152603 68 242 6.0 19.0 0.00 0.01 0.00 59 1006.7
20260505152503 68 246 7.0 19.0 0.00 0.01 0.00 59 1006.7
20260505152403 67 250 8.0 19.0 0.00 0.01 0.00 60 1006.6
20260505152324 67 250 8.0 19.0 0.00 0.01 0.00 61 1006.7
20260505152103 67 244 8.0 19.0 0.00 0.01 0.00 60 1006.8
20260505152003 67 237 7.0 18.0 0.00 0.01 0.00 61 1006.9
20260505151903 67 235 7.0 18.0 0.00 0.01 0.00 61 1006.8
20260505151703 67 230 7.0 18.0 0.00 0.01 0.00 60 1007.1
20260505151603 67 232 7.0 18.0 0.00 0.01 0.00 60 1007.0
20260505151424 68 224 6.0 16.0 0.00 0.01 0.00 60 1007.0
20260505151203 68 225 6.0 15.0 0.00 0.01 0.00 60 1006.8
20260505151103 67 223 6.0 15.0 0.00 0.01 0.00 60 1006.9
20260505151003 67 227 5.0 15.0 0.00 0.01 0.00 60 1006.8
20260505150603 67 229 5.0 13.0 0.00 0.01 0.00 62 1006.7
20260505150403 67 230 5.0 13.0 0.00 0.01 0.00 60 1006.9
20260505140603 66 186 5.0 16.0 0.00 0.01 0.00 67 1006.5
20260505140303 66 181 4.0 13.0 0.00 0.01 0.00 67 1006.5
20260505124903 62 196 3.0 9.0 0.00 0.01 0.00 73 1006.6
20260505124803 62 200 3.0 9.0 0.00 0.01 0.00 74 1006.8
20260505124703 62 199 3.0 9.0 0.00 0.01 0.00 73 1006.6
20260505124503 62 190 3.0 10.0 0.00 0.01 0.00 74 1006.6
20260505124303 62 180 3.0 10.0 0.00 0.01 0.00 73 1006.6
20260505124103 62 188 4.0 10.0 0.00 0.01 0.00 73 1006.5
20260505123903 62 186 4.0 10.0 0.00 0.01 0.00 73 1006.5
20260505123703 62 187 4.0 10.0 0.00 0.01 0.00 73 1006.4
20260505123303 62 196 4.0 10.0 0.00 0.01 0.00 73 1006.4
20260505123124 62 194 3.0 10.0 0.00 0.01 0.00 73 1006.3
20260505123003 62 198 3.0 10.0 0.00 0.01 0.00 73 1006.4
20260505122903 62 194 4.0 10.0 0.00 0.01 0.00 73 1006.4
20260505122703 62 186 4.0 16.0 0.00 0.01 0.00 72 1006.3
20260505122124 62 171 4.0 16.0 0.00 0.01 0.00 72 1006.5
20260505122003 62 166 4.0 16.0 0.00 0.01 0.00 72 1006.2
20260505121903 62 170 3.0 16.0 0.00 0.01 0.00 72 1006.3
20260505121803 62 165 4.0 16.0 0.00 0.01 0.00 72 1006.3
20260505121503 62 166 3.0 10.0 0.00 0.01 0.00 72 1006.2
20260505121403 62 168 3.0 10.0 0.00 0.01 0.00 72 1006.2
20260505121124 62 160 2.0 10.0 0.00 0.01 0.00 72 1006.1
20260505120903 62 166 3.0 10.0 0.00 0.01 0.00 72 1006.0
20260505120703 62 163 2.0 9.0 0.00 0.01 0.00 72 1006.3
20260505120624 62 165 2.0 9.0 0.00 0.01 0.00 72 1006.2
20260505120303 62 165 2.0 9.0 0.00 0.01 0.00 72 1005.9
20260505120103 62 166 3.0 9.0 0.00 0.01 0.00 71 1005.9
20260505115603 62 172 3.0 10.0 0.00 0.01 0.00 72 1005.6
20260505115324 62 180 4.0 10.0 0.00 0.01 0.00 72 1005.7
20260505115103 62 184 3.0 10.0 0.00 0.01 0.00 72 1005.8
20260505114024 61 197 4.0 15.0 0.00 0.01 0.00 75 1005.6
20260505113903 60 201 4.0 15.0 0.00 0.01 0.00 75 1005.9
20260505113724 60 206 4.0 15.0 0.00 0.01 0.00 76 1005.9
20260505113603 61 216 5.0 16.0 0.00 0.01 0.00 76 1005.8
20260505113003 61 207 5.0 16.0 0.00 0.01 0.00 74 1005.4
20260505112903 61 209 5.0 16.0 0.00 0.01 0.00 75 1005.7
20260505112503 62 204 4.0 11.0 0.00 0.01 0.00 71 1005.6
20260505112304 63 203 4.0 11.0 0.00 0.01 0.00 70 1005.4
20260505112203 63 202 4.0 11.0 0.00 0.01 0.00 70 1005.4
20260505112103 63 193 4.0 11.0 0.00 0.01 0.00 69 1005.4
20260505111703 64 182 4.0 9.0 0.00 0.01 0.00 67 1005.4
20260505111524 64 183 4.0 9.0 0.00 0.01 0.00 66 1005.6
20260505111403 64 180 4.0 9.0 0.00 0.01 0.00 66 1005.5
20260505111303 64 183 4.0 9.0 0.00 0.01 0.00 65 1005.6
20260505111103 64 192 4.0 11.0 0.00 0.01 0.00 64 1005.6
20260505110503 64 191 4.0 11.0 0.00 0.01 0.00 64 1005.5
20260505110324 64 199 4.0 11.0 0.00 0.01 0.00 65 1005.4
20260505110203 64 195 4.0 11.0 0.00 0.01 0.00 65 1005.5
20260505102103 65 207 6.0 16.0 0.00 0.01 0.00 63 1005.1
20260505102003 65 202 6.0 16.0 0.00 0.01 0.00 63 1004.9
20260505101803 65 198 6.0 16.0 0.00 0.01 0.00 63 1005.2
20260505101103 65 204 6.0 18.0 0.00 0.01 0.00 62 1004.9
20260505100903 65 203 5.0 18.0 0.00 0.01 0.00 62 1004.9
20260505100803 65 205 5.0 18.0 0.00 0.01 0.00 62 1004.7
20260505100524 65 190 5.0 18.0 0.00 0.01 0.00 62 1004.7
20260505100403 65 185 4.0 11.0 0.00 0.01 0.00 62 1004.7
20260505100303 65 193 5.0 13.0 0.00 0.01 0.00 62 1004.9
20260505100203 66 186 5.0 14.0 0.00 0.01 0.00 62 1004.7
20260505100124 66 188 5.0 14.0 0.00 0.01 0.00 62 1004.6
20260505095803 66 195 5.0 14.0 0.00 0.01 0.00 62 1004.6
20260505095603 66 191 5.0 14.0 0.00 0.01 0.00 62 1004.6
20260505095403 66 198 6.0 14.0 0.00 0.01 0.00 61 1004.6
20260505095304 66 196 5.0 14.0 0.00 0.01 0.00 61 1004.3
20260505095203 66 200 5.0 14.0 0.00 0.01 0.00 61 1004.4
20260505095103 66 191 5.0 14.0 0.00 0.01 0.00 61 1004.3
20260505095003 66 191 4.0 14.0 0.00 0.01 0.00 61 1004.3
20260505094603 66 190 4.0 14.0 0.00 0.01 0.00 61 1004.3
20260505094503 66 185 4.0 14.0 0.00 0.01 0.00 61 1004.4
20260505094403 66 193 4.0 16.0 0.00 0.01 0.00 61 1004.3
20260505093924 66 197 4.0 16.0 0.00 0.01 0.00 61 1004.3
20260505093403 66 197 4.0 13.0 0.00 0.01 0.00 61 1004.1
20260505093303 66 199 4.0 13.0 0.00 0.01 0.00 61 1004.1
20260505093103 66 203 4.0 11.0 0.00 0.01 0.00 61 1004.2
20260505092903 66 203 4.0 11.0 0.00 0.01 0.00 61 1004.1
20260505092803 66 200 4.0 11.0 0.00 0.01 0.00 61 1004.0
20260505092403 66 199 4.0 14.0 0.00 0.01 0.00 61 1003.9
20260505092203 66 204 4.0 14.0 0.00 0.01 0.00 62 1004.0
20260505091924 66 196 4.0 14.0 0.00 0.01 0.00 62 1003.8
20260505091503 65 182 4.0 13.0 0.00 0.01 0.00 62 1003.8
20260505091403 65 181 4.0 13.0 0.00 0.01 0.00 62 1003.6
20260505090903 65 168 3.0 13.0 0.00 0.01 0.00 63 1003.9
20260505090824 65 161 3.0 13.0 0.00 0.01 0.00 63 1003.7
20260505090703 65 155 3.0 8.0 0.00 0.01 0.00 63 1003.8
20260505090603 65 157 3.0 8.0 0.00 0.01 0.00 63 1003.9
20260505090424 65 149 3.0 8.0 0.00 0.01 0.00 63 1004.0
20260505090303 65 145 3.0 8.0 0.00 0.01 0.00 63 1003.9
20260505090003 65 156 3.0 8.0 0.00 0.01 0.00 63 1003.9
20260505085903 65 152 3.0 8.0 0.00 0.01 0.00 63 1003.9
20260505085603 65 155 3.0 8.0 0.00 0.01 0.00 63 1003.9
20260505085503 65 160 3.0 8.0 0.00 0.01 0.00 63 1003.7
20260505085403 65 168 3.0 8.0 0.00 0.01 0.00 63 1003.7
20260505085124 65 177 3.0 9.0 0.00 0.01 0.00 63 1003.9
20260505084803 65 175 3.0 9.0 0.00 0.01 0.00 63 1003.9
20260505084603 65 177 3.0 9.0 0.00 0.01 0.00 63 1004.0
20260505084524 65 179 3.0 9.0 0.00 0.01 0.00 63 1004.1
20260505084403 65 172 3.0 9.0 0.00 0.01 0.00 63 1004.0
20260505084203 65 158 3.0 9.0 0.00 0.01 0.00 63 1004.1
20260505084003 65 154 3.0 8.0 0.00 0.01 0.00 64 1004.2
20260505083824 65 149 2.0 7.0 0.00 0.01 0.00 64 1003.9
20260505083603 65 142 3.0 8.0 0.00 0.01 0.00 64 1004.2
20260505083403 65 158 3.0 8.0 0.00 0.01 0.00 64 1004.3
20260505083303 65 170 3.0 8.0 0.00 0.01 0.00 64 1004.1
20260505083003 65 180 3.0 8.0 0.00 0.01 0.00 64 1003.8
20260505082703 65 188 3.0 8.0 0.00 0.01 0.00 63 1003.9
20260505082603 65 185 3.0 8.0 0.00 0.01 0.00 63 1004.2
20260505082403 65 177 3.0 8.0 0.00 0.01 0.00 63 1003.9
20260505082124 66 173 3.0 8.0 0.00 0.01 0.00 63 1004.0
20260505081703 65 164 3.0 11.0 0.00 0.01 0.00 64 1004.0
20260505081624 65 169 3.0 11.0 0.00 0.01 0.00 64 1004.0
20260505081103 66 180 5.0 11.0 0.00 0.01 0.00 63 1003.9
20260505080803 66 183 5.0 11.0 0.00 0.01 0.00 63 1003.9
20260505080703 66 186 5.0 11.0 0.00 0.01 0.00 63 1003.8
20260505080603 66 186 5.0 13.0 0.00 0.01 0.00 63 1003.7
20260505080503 66 182 5.0 13.0 0.00 0.01 0.00 63 1003.7
20260505080303 65 181 4.0 13.0 0.00 0.01 0.00 63 1003.6
20260505080203 65 176 4.0 13.0 0.00 0.01 0.00 64 1003.8
20260505075603 65 186 4.0 13.0 0.00 0.01 0.00 65 1003.7
20260505075524 65 184 4.0 13.0 0.00 0.01 0.00 65 1004.0
20260505075103 65 183 5.0 15.0 0.00 0.01 0.00 65 1003.5
20260505074503 65 164 3.0 15.0 0.00 0.01 0.00 66 1003.6
20260505074103 65 152 3.0 9.0 0.00 0.01 0.00 67 1003.7
20260505074024 65 153 3.0 9.0 0.00 0.01 0.00 67 1003.6
20260505073903 65 155 3.0 9.0 0.00 0.01 0.00 67 1003.8
20260505073703 65 157 2.0 9.0 0.00 0.01 0.00 67 1003.6
20260505073624 65 157 2.0 9.0 0.00 0.01 0.00 67 1003.7
20260505073503 65 164 3.0 7.0 0.00 0.01 0.00 66 1003.3
20260505073403 65 158 3.0 7.0 0.00 0.01 0.00 66 1003.4
20260505073303 65 154 3.0 7.0 0.00 0.01 0.00 66 1003.4
20260505073103 65 154 3.0 7.0 0.00 0.01 0.00 66 1003.4
20260505072903 65 154 3.0 9.0 0.00 0.01 0.00 65 1003.6
20260505072703 65 156 4.0 10.0 0.00 0.01 0.00 65 1003.5
20260505072403 65 157 3.0 10.0 0.00 0.01 0.00 65 1003.5
20260505072203 65 161 3.0 11.0 0.00 0.01 0.00 65 1003.4
20260505071903 65 166 4.0 11.0 0.00 0.01 0.00 65 1003.4
20260505071724 65 172 3.0 11.0 0.00 0.01 0.00 65 1003.2
20260505071403 65 175 3.0 11.0 0.00 0.01 0.00 65 1003.5
20260505071103 65 186 3.0 8.0 0.00 0.01 0.00 64 1003.5
20260505070903 65 184 3.0 9.0 0.00 0.01 0.00 65 1003.5
20260505070503 65 171 3.0 9.0 0.00 0.01 0.00 65 1003.7
20260505070403 65 172 3.0 9.0 0.00 0.01 0.00 64 1003.7
20260505070203 65 167 3.0 9.0 0.00 0.01 0.00 64 1003.7
20260505070124 65 166 3.0 9.0 0.00 0.01 0.00 64 1003.5
20260505065903 65 159 3.0 9.0 0.00 0.01 0.00 65 1003.5
20260505065603 65 152 3.0 9.0 0.00 0.01 0.00 65 1003.5
20260505065324 65 153 3.0 9.0 0.00 0.01 0.00 64 1003.6
20260505065203 65 148 3.0 9.0 0.00 0.01 0.00 64 1003.5
20260505065124 65 148 3.0 10.0 0.00 0.01 0.00 64 1003.6
20260505064903 65 146 3.0 10.0 0.00 0.01 0.00 65 1003.5
20260505064724 65 149 3.0 10.0 0.00 0.01 0.00 64 1003.6
20260505064624 66 155 3.0 10.0 0.00 0.01 0.00 64 1003.5
20260505064303 66 157 4.0 11.0 0.00 0.01 0.00 64 1003.5
20260505063903 66 156 4.0 11.0 0.00 0.01 0.00 64 1003.6
20260505063503 65 150 4.0 13.0 0.00 0.01 0.00 64 1003.6
20260505063403 65 149 3.0 13.0 0.00 0.01 0.00 64 1003.6
20260505063124 66 154 3.0 13.0 0.00 0.01 0.00 64 1003.5
20260505062903 66 154 4.0 13.0 0.00 0.01 0.00 64 1003.7
20260505062803 66 156 4.0 13.0 0.00 0.01 0.00 64 1003.7
20260505062624 66 156 4.0 13.0 0.00 0.01 0.00 64 1003.6
20260505062403 66 156 4.0 13.0 0.00 0.01 0.00 64 1003.6
20260505062324 66 155 4.0 13.0 0.00 0.01 0.00 64 1003.6
20260505062103 66 156 4.0 9.0 0.00 0.01 0.00 64 1003.7
20260505062024 66 156 3.0 9.0 0.00 0.01 0.00 64 1003.5
20260505061924 66 156 3.0 9.0 0.00 0.01 0.00 64 1003.8
20260505061703 65 162 3.0 9.0 0.00 0.01 0.00 64 1003.8
20260505061603 65 159 3.0 9.0 0.00 0.01 0.00 64 1003.9
20260505061403 65 169 4.0 15.0 0.00 0.01 0.00 64 1003.9
20260505061224 66 165 3.0 15.0 0.00 0.01 0.00 64 1003.8
20260505061103 66 167 4.0 15.0 0.00 0.01 0.00 64 1003.8
20260505061003 66 166 4.0 15.0 0.00 0.01 0.00 64 1003.9
20260505060924 66 166 4.0 15.0 0.00 0.01 0.00 64 1003.7
20260505060703 66 168 4.0 15.0 0.00 0.01 0.00 63 1004.0
20260505060603 66 168 4.0 15.0 0.00 0.01 0.00 63 1003.9
20260505060503 66 164 3.0 11.0 0.00 0.01 0.00 64 1003.8
20260505060303 66 181 4.0 11.0 0.00 0.01 0.00 64 1003.8
20260505055703 66 183 4.0 16.0 0.00 0.01 0.00 63 1004.0
20260505055603 66 185 5.0 16.0 0.00 0.01 0.00 63 1004.0
20260505055403 66 182 5.0 16.0 0.00 0.01 0.00 63 1004.1
20260505055304 66 179 4.0 16.0 0.00 0.01 0.00 63 1004.1
20260505054903 66 171 4.0 16.0 0.00 0.01 0.00 64 1004.3
20260505054603 66 168 4.0 11.0 0.00 0.01 0.00 64 1004.1
20260505054524 66 166 4.0 11.0 0.00 0.01 0.00 64 1004.1
20260505054303 66 168 4.0 11.0 0.00 0.01 0.00 64 1004.2
20260505054103 66 167 4.0 11.0 0.00 0.01 0.00 64 1004.2
20260505054003 66 170 4.0 11.0 0.00 0.01 0.00 64 1004.0
20260505053903 66 172 4.0 11.0 0.00 0.01 0.00 64 1004.4
20260505053724 66 172 4.0 11.0 0.00 0.01 0.00 64 1004.4
20260505053603 66 176 4.0 11.0 0.00 0.01 0.00 64 1004.4
20260505053303 66 171 4.0 11.0 0.00 0.01 0.00 64 1004.1
20260505053103 66 170 4.0 10.0 0.00 0.01 0.00 64 1004.4
20260505052903 66 172 4.0 10.0 0.00 0.01 0.00 64 1004.5
20260505052803 66 171 4.0 13.0 0.00 0.01 0.00 64 1004.4
20260505052524 65 173 3.0 13.0 0.00 0.01 0.00 64 1004.2
20260505052403 65 169 4.0 13.0 0.00 0.01 0.00 64 1004.3
20260505052324 65 166 4.0 13.0 0.00 0.01 0.00 64 1004.1
20260505052103 65 159 4.0 13.0 0.00 0.01 0.00 65 1004.5
20260505051924 65 157 4.0 13.0 0.00 0.01 0.00 64 1004.5
20260505051803 65 152 4.0 13.0 0.00 0.01 0.00 65 1004.4
20260505051703 65 151 4.0 13.0 0.00 0.01 0.00 65 1004.6
20260505051603 65 153 4.0 13.0 0.00 0.01 0.00 64 1004.7
20260505051503 65 151 4.0 13.0 0.00 0.01 0.00 64 1004.3
20260505051403 65 150 4.0 13.0 0.00 0.01 0.00 64 1004.4
20260505051303 65 152 4.0 13.0 0.00 0.01 0.00 64 1004.3
20260505051003 65 166 4.0 13.0 0.00 0.01 0.00 65 1004.5
20260505050624 65 175 3.0 14.0 0.00 0.01 0.00 65 1004.3
20260505050503 65 172 4.0 14.0 0.00 0.01 0.00 65 1004.4
20260505050403 65 177 4.0 14.0 0.00 0.01 0.00 65 1004.4
20260505050203 65 167 4.0 14.0 0.00 0.01 0.00 65 1004.4
20260505050103 65 163 4.0 14.0 0.00 0.01 0.00 65 1004.5
20260505041703 65 154 3.0 14.0 0.00 0.01 0.00 67 1004.7
20260505041303 65 156 4.0 14.0 0.00 0.01 0.00 65 1004.6
20260505041203 65 156 4.0 14.0 0.00 0.01 0.00 65 1004.7
20260505041124 65 153 4.0 14.0 0.00 0.01 0.00 65 1004.7
20260505040603 65 157 4.0 10.0 0.00 0.01 0.00 64 1005.0
20260505040203 65 161 3.0 10.0 0.00 0.01 0.00 64 1005.0
20260505040004 65 159 3.0 9.0 0.00 0.01 0.00 64 1004.7
20260505035924 65 156 3.0 7.0 0.00 0.01 0.01 65 1004.9
20260505035403 65 152 3.0 11.0 0.00 0.01 0.01 64 1004.7
20260505034503 65 150 3.0 10.0 0.00 0.01 0.01 64 1005.0
20260505034303 65 159 3.0 10.0 0.00 0.01 0.01 64 1004.7
20260505033903 65 159 3.0 9.0 0.00 0.01 0.01 64 1005.1
20260505033603 65 150 3.0 9.0 0.00 0.01 0.01 64 1005.1
20260505033103 65 141 3.0 9.0 0.00 0.01 0.01 64 1005.3
20260505032903 65 144 3.0 9.0 0.00 0.01 0.01 63 1004.7
20260505032703 65 146 3.0 9.0 0.00 0.01 0.01 64 1005.1
20260505032603 65 148 3.0 9.0 0.00 0.01 0.01 63 1005.0
20260505032304 65 159 4.0 9.0 0.00 0.01 0.01 63 1005.0
20260505032203 65 160 4.0 9.0 0.00 0.01 0.01 63 1005.2
20260505032103 66 157 4.0 11.0 0.00 0.01 0.01 63 1005.3
20260505031603 66 160 5.0 11.0 0.00 0.01 0.01 63 1005.1
20260505031524 66 159 4.0 11.0 0.00 0.01 0.01 63 1005.2
20260505031103 66 160 4.0 10.0 0.00 0.01 0.01 62 1005.1
20260505030903 66 156 4.0 16.0 0.00 0.01 0.01 62 1005.2
20260505030703 66 156 4.0 16.0 0.00 0.01 0.01 63 1005.2
20260505030403 66 149 4.0 16.0 0.00 0.01 0.01 63 1005.1
20260505025903 66 158 5.0 16.0 0.00 0.01 0.01 62 1005.0
20260505025403 66 164 3.0 13.0 0.00 0.01 0.01 62 1005.0
20260505025224 66 165 3.0 13.0 0.00 0.01 0.01 62 1005.3
20260505025103 66 152 3.0 9.0 0.00 0.01 0.01 62 1005.1
20260505024903 66 159 3.0 9.0 0.00 0.01 0.01 62 1005.1
20260505024603 66 162 3.0 10.0 0.00 0.01 0.01 62 1005.1
20260505024403 66 158 3.0 10.0 0.00 0.01 0.01 62 1005.0
20260505024203 66 161 3.0 10.0 0.00 0.01 0.01 62 1005.1
20260505023803 66 156 4.0 10.0 0.00 0.01 0.01 61 1005.1
20260505023704 66 155 4.0 10.0 0.00 0.01 0.01 61 1005.2
20260505023403 66 150 3.0 9.0 0.00 0.01 0.01 61 1004.9
20260505023303 66 146 3.0 10.0 0.00 0.01 0.01 61 1005.0
20260505023203 66 149 3.0 10.0 0.00 0.01 0.01 61 1005.0
20260505023103 66 153 3.0 10.0 0.00 0.01 0.01 61 1005.2
20260505023003 66 159 3.0 10.0 0.00 0.01 0.01 61 1005.1
20260505022903 66 158 3.0 10.0 0.00 0.01 0.01 61 1005.0
20260505022803 66 153 3.0 10.0 0.00 0.01 0.01 61 1005.2
20260505022624 66 150 3.0 10.0 0.00 0.01 0.01 61 1005.2
20260505022503 67 148 3.0 10.0 0.00 0.01 0.01 60 1005.1
20260505022103 67 164 4.0 11.0 0.00 0.01 0.01 60 1005.1
20260505021903 67 161 4.0 11.0 0.00 0.01 0.01 60 1005.0
20260505021824 67 163 5.0 11.0 0.00 0.01 0.01 60 1005.1
20260505021603 67 168 5.0 11.0 0.00 0.01 0.01 60 1004.9
20260505021503 67 172 5.0 16.0 0.00 0.01 0.01 59 1005.3
20260505021303 67 166 5.0 16.0 0.00 0.01 0.01 59 1005.0
20260505020624 67 176 4.0 16.0 0.00 0.01 0.01 59 1005.3
20260505020303 67 176 4.0 13.0 0.00 0.01 0.01 58 1005.4
20260505020103 67 177 4.0 11.0 0.00 0.01 0.01 58 1005.2
20260505015903 67 177 4.0 11.0 0.00 0.01 0.01 58 1005.3
20260505015503 67 181 5.0 11.0 0.00 0.01 0.01 58 1005.3
20260505015403 67 180 4.0 11.0 0.00 0.01 0.01 58 1005.4
20260505015124 67 180 4.0 11.0 0.00 0.01 0.01 57 1005.4
20260505014924 68 181 5.0 15.0 0.00 0.01 0.01 57 1005.2
20260505014403 68 182 4.0 15.0 0.00 0.01 0.01 57 1005.1
20260505014103 67 190 4.0 16.0 0.00 0.01 0.01 57 1005.2
20260505013903 68 179 4.0 16.0 0.00 0.01 0.01 57 1005.0
20260505013103 68 173 4.0 16.0 0.00 0.01 0.01 57 1005.1
20260505013024 68 168 4.0 16.0 0.00 0.01 0.01 57 1005.0
20260505012703 68 169 4.0 16.0 0.00 0.01 0.01 57 1005.2
20260505012603 68 166 4.0 16.0 0.00 0.01 0.01 57 1005.0
20260505012403 68 161 4.0 11.0 0.00 0.01 0.01 57 1004.7
20260505012103 68 169 5.0 11.0 0.00 0.01 0.01 56 1005.1
20260505012003 68 166 5.0 11.0 0.00 0.01 0.01 57 1005.0
20260505011903 68 165 5.0 11.0 0.00 0.01 0.01 56 1004.9
20260505011603 68 176 4.0 11.0 0.00 0.01 0.01 56 1005.0
20260505011303 68 182 4.0 11.0 0.00 0.01 0.01 56 1004.6
20260505011224 68 180 4.0 11.0 0.00 0.01 0.01 56 1005.0
20260505011103 69 184 4.0 11.0 0.00 0.01 0.01 56 1005.1
20260505010903 69 187 4.0 11.0 0.00 0.01 0.01 56 1004.9
20260505010602 69 174 4.0 10.0 0.00 0.01 0.01 56 1004.7
20260505010402 69 169 4.0 10.0 0.00 0.01 0.01 55 1004.5
20260505010002 69 164 3.0 10.0 0.00 0.01 0.01 55 1004.7
20260505005902 69 163 3.0 10.0 0.00 0.01 0.01 55 1004.6
20260505005602 69 163 3.0 10.0 0.00 0.01 0.01 55 1004.5
20260505005402 69 159 3.0 7.0 0.00 0.01 0.01 55 1004.5
20260505005202 69 155 3.0 8.0 0.00 0.01 0.01 55 1004.7
20260505005102 69 153 3.0 8.0 0.00 0.01 0.01 55 1004.4
20260505005002 69 155 3.0 8.0 0.00 0.01 0.01 55 1004.4
20260505004923 69 157 3.0 8.0 0.00 0.01 0.01 55 1004.4
20260505004823 69 159 3.0 8.0 0.00 0.01 0.01 55 1004.4
20260505004402 69 158 3.0 10.0 0.00 0.01 0.01 55 1004.4
20260505004102 69 165 3.0 10.0 0.00 0.01 0.01 54 1004.3
20260505004002 70 164 3.0 10.0 0.00 0.01 0.01 54 1004.4
20260505003902 70 162 3.0 10.0 0.00 0.01 0.01 54 1004.2
20260505003623 70 168 3.0 10.0 0.00 0.01 0.01 54 1004.3
20260505003202 70 166 3.0 10.0 0.00 0.01 0.01 54 1004.4
20260505002902 70 172 4.0 10.0 0.00 0.01 0.01 54 1004.3
20260505002802 70 179 4.0 10.0 0.00 0.01 0.01 54 1004.3
20260505002602 70 175 4.0 10.0 0.00 0.01 0.01 54 1004.3
20260505002502 70 180 4.0 10.0 0.00 0.01 0.01 54 1004.3
20260505002423 70 180 4.0 10.0 0.00 0.01 0.01 54 1004.2
20260505002102 70 181 4.0 13.0 0.00 0.01 0.01 54 1004.3
20260505001602 70 182 4.0 13.0 0.00 0.01 0.01 53 1004.1
20260505001402 70 182 4.0 13.0 0.00 0.01 0.01 53 1004.2
20260505001302 70 184 4.0 13.0 0.00 0.01 0.01 54 1004.2
20260505000902 70 179 4.0 13.0 0.00 0.01 0.01 53 1004.0
20260505000402 70 183 4.0 16.0 0.00 0.01 0.01 53 1003.8
20260505000204 70 185 4.0 16.0 0.00 0.01 0.01 53 1003.9
20260504235902 71 192 4.0 16.0 0.00 0.01 0.01 53 1003.7
20260504235602 71 186 4.0 16.0 0.00 0.01 0.01 52 1003.8
20260504235402 71 189 4.0 11.0 0.00 0.01 0.01 53 1003.8
20260504235304 71 182 4.0 11.0 0.00 0.01 0.01 53 1003.8
20260504235223 71 188 4.0 11.0 0.00 0.01 0.01 52 1003.7
20260504235102 71 192 4.0 13.0 0.00 0.01 0.01 52 1003.8
20260504234902 71 190 4.0 13.0 0.00 0.01 0.01 52 1003.9
20260504234802 72 195 4.0 13.0 0.00 0.01 0.01 52 1003.8
20260504234402 72 202 5.0 13.0 0.00 0.01 0.01 51 1003.8
20260504234002 72 203 6.0 14.0 0.00 0.01 0.01 51 1003.5
20260504233902 72 204 6.0 14.0 0.00 0.01 0.01 51 1003.6
20260504233602 72 187 5.0 14.0 0.00 0.01 0.01 51 1003.6
20260504233402 72 188 5.0 14.0 0.00 0.01 0.01 51 1003.4
20260504233102 72 194 5.0 14.0 0.00 0.01 0.01 52 1003.5
20260504232902 72 191 5.0 14.0 0.00 0.01 0.01 51 1003.5
20260504232702 72 200 5.0 14.0 0.00 0.01 0.01 51 1003.6
20260504232602 72 202 5.0 14.0 0.00 0.01 0.01 51 1003.5
20260504232523 72 204 5.0 14.0 0.00 0.01 0.01 51 1003.6
20260504232402 72 198 5.0 14.0 0.00 0.01 0.01 52 1003.6
20260504232303 72 197 5.0 14.0 0.00 0.01 0.01 52 1003.4
20260504232202 72 195 4.0 14.0 0.00 0.01 0.01 52 1003.5
20260504231323 72 180 5.0 16.0 0.00 0.01 0.01 53 1003.7
20260504231202 72 179 5.0 16.0 0.00 0.01 0.01 53 1003.7
20260504231102 72 190 5.0 13.0 0.00 0.01 0.01 53 1003.6
20260504230602 71 180 5.0 14.0 0.00 0.01 0.01 54 1003.3
20260504230502 71 185 5.0 14.0 0.00 0.01 0.01 54 1003.5
20260504230402 71 181 5.0 14.0 0.00 0.01 0.01 54 1003.6
20260504230302 71 186 6.0 14.0 0.00 0.01 0.01 54 1003.5
20260504230002 71 193 7.0 17.0 0.01 0.01 0.01 54 1003.6
20260504225923 71 195 7.0 17.0 0.01 0.01 0.01 54 1003.8
20260504225802 71 197 6.0 17.0 0.01 0.01 0.01 54 1003.8
20260504225602 71 198 6.0 17.0 0.01 0.01 0.01 54 1003.7
20260504225502 71 196 6.0 17.0 0.01 0.01 0.01 54 1003.9
20260504225402 71 198 6.0 17.0 0.01 0.01 0.01 54 1004.0
20260504225102 71 197 6.0 17.0 0.01 0.01 0.01 54 1003.9
20260504225002 72 189 5.0 15.0 0.01 0.01 0.01 54 1003.7
20260504224902 72 185 5.0 13.0 0.01 0.01 0.01 54 1003.8
20260504224723 72 186 5.0 13.0 0.01 0.01 0.01 54 1003.7
20260504224602 72 189 5.0 13.0 0.01 0.01 0.01 55 1003.9
20260504224402 71 189 5.0 13.0 0.01 0.01 0.01 55 1003.9
20260504224302 71 192 5.0 10.0 0.01 0.01 0.01 56 1003.9
20260504224102 71 186 5.0 10.0 0.01 0.01 0.01 55 1003.8
20260504223902 72 194 5.0 11.0 0.01 0.01 0.01 55 1004.0
20260504223702 72 195 5.0 11.0 0.01 0.01 0.01 55 1004.1
20260504223602 72 188 5.0 11.0 0.01 0.01 0.01 55 1004.0
20260504223302 71 183 5.0 14.0 0.01 0.01 0.01 55 1004.0
20260504223102 72 179 5.0 16.0 0.01 0.01 0.01 55 1004.0
20260504222923 72 175 4.0 16.0 0.01 0.01 0.01 56 1004.1
20260504222702 71 172 4.0 16.0 0.01 0.01 0.01 56 1004.1
20260504222602 71 175 4.0 16.0 0.01 0.01 0.01 56 1004.0
20260504222502 71 169 3.0 16.0 0.01 0.01 0.01 54 1003.9
20260504222102 71 181 4.0 16.0 0.01 0.01 0.01 57 1004.1
20260504221802 70 192 4.0 16.0 0.01 0.01 0.01 59 1004.2
20260504221602 69 186 5.0 16.0 0.01 0.01 0.01 61 1004.4
20260504221102 69 182 4.0 14.0 0.01 0.01 0.01 61 1004.3
20260504221002 68 179 4.0 14.0 0.01 0.01 0.01 61 1004.3
20260504220902 68 164 3.0 9.0 0.01 0.01 0.01 65 1004.3
20260504220802 68 169 4.0 10.0 0.01 0.01 0.01 67 1004.4
20260504220602 68 185 4.0 16.0 0.01 0.01 0.01 67 1004.2
20260504220402 68 188 5.0 16.0 0.01 0.01 0.01 65 1004.2
20260504215902 71 187 6.0 16.0 0.00 0.00 0.00 56 1004.6
20260504215802 71 186 5.0 16.0 0.00 0.00 0.00 53 1004.6
20260504215602 71 193 6.0 16.0 0.00 0.00 0.00 53 1004.5
20260504215402 71 189 5.0 16.0 0.00 0.00 0.00 53 1004.2
20260504214902 72 186 5.0 16.0 0.00 0.00 0.00 52 1004.4
20260504214802 72 183 5.0 16.0 0.00 0.00 0.00 52 1004.3
20260504214702 72 182 5.0 16.0 0.00 0.00 0.00 52 1004.3
20260504214602 72 173 5.0 15.0 0.00 0.00 0.00 52 1004.4
20260504214402 72 177 5.0 15.0 0.00 0.00 0.00 52 1004.2
20260504214102 74 185 5.0 13.0 0.00 0.00 0.00 51 1004.2
20260504214002 74 180 5.0 13.0 0.00 0.00 0.00 50 1004.2
20260504213602 74 187 6.0 16.0 0.00 0.00 0.00 49 1004.2
20260504213302 74 178 6.0 16.0 0.00 0.00 0.00 49 1004.2
20260504213202 74 174 5.0 16.0 0.00 0.00 0.00 49 1004.2
20260504213102 74 168 5.0 16.0 0.00 0.00 0.00 49 1004.3
20260504212902 74 162 5.0 16.0 0.00 0.00 0.00 49 1004.2
20260504212502 73 163 4.0 11.0 0.00 0.00 0.00 49 1004.2
20260504212303 73 164 4.0 13.0 0.00 0.00 0.00 50 1004.1
20260504212102 73 168 4.0 13.0 0.00 0.00 0.00 50 1004.3
20260504211923 73 185 4.0 13.0 0.00 0.00 0.00 50 1004.4
20260504211802 74 191 5.0 13.0 0.00 0.00 0.00 49 1004.3
20260504211302 73 201 6.0 15.0 0.00 0.00 0.00 49 1004.5
20260504211102 72 200 6.0 15.0 0.00 0.00 0.00 50 1004.5
20260504210802 72 189 6.0 15.0 0.00 0.00 0.00 51 1004.5
20260504210602 72 181 5.0 15.0 0.00 0.00 0.00 50 1004.5
20260504210323 73 169 4.0 13.0 0.00 0.00 0.00 49 1004.6
20260504210002 73 169 4.0 13.0 0.00 0.00 0.00 49 1004.7
20260504205602 74 191 5.0 17.0 0.00 0.00 0.00 48 1004.6
20260504205423 74 208 6.0 17.0 0.00 0.00 0.00 47 1004.7
20260504205223 73 209 6.0 17.0 0.00 0.00 0.00 47 1004.6
20260504204923 72 214 7.0 18.0 0.00 0.00 0.00 48 1004.7
20260504204802 72 210 7.0 18.0 0.00 0.00 0.00 48 1004.7
20260504204602 73 194 6.0 18.0 0.00 0.00 0.00 48 1004.6
20260504204402 73 187 5.0 18.0 0.00 0.00 0.00 47 1004.6
20260504204323 73 188 5.0 18.0 0.00 0.00 0.00 47 1004.9
20260504204102 74 174 4.0 15.0 0.00 0.00 0.00 47 1004.9
20260504204002 74 168 4.0 15.0 0.00 0.00 0.00 46 1004.6
20260504203702 74 197 5.0 15.0 0.00 0.00 0.00 46 1004.6
20260504203602 74 207 5.0 15.0 0.00 0.00 0.00 46 1004.7
20260504203523 74 203 5.0 14.0 0.00 0.00 0.00 45 1004.7
20260504203423 74 209 5.0 14.0 0.00 0.00 0.00 45 1004.7
20260504203202 74 210 6.0 15.0 0.00 0.00 0.00 46 1004.6
20260504202902 73 205 6.0 17.0 0.00 0.00 0.00 46 1004.9
20260504202202 73 193 6.0 17.0 0.00 0.00 0.00 45 1004.7
20260504202102 74 191 6.0 17.0 0.00 0.00 0.00 45 1004.9
20260504201802 73 196 6.0 14.0 0.00 0.00 0.00 47 1004.9
20260504201602 73 202 6.0 14.0 0.00 0.00 0.00 46 1004.9
20260504201502 73 202 6.0 14.0 0.00 0.00 0.00 46 1004.9
20260504201102 74 197 5.0 14.0 0.00 0.00 0.00 47 1005.0
20260504201002 74 196 5.0 14.0 0.00 0.00 0.00 46 1005.0
20260504200902 74 182 5.0 14.0 0.00 0.00 0.00 46 1005.0
20260504200602 74 190 5.0 15.0 0.00 0.00 0.00 47 1005.0
20260504200423 73 191 5.0 15.0 0.00 0.00 0.00 47 1004.9
20260504195702 73 192 6.0 15.0 0.00 0.00 0.00 46 1005.0
20260504195623 73 183 6.0 15.0 0.00 0.00 0.00 45 1005.1
20260504195502 73 179 6.0 16.0 0.00 0.00 0.00 46 1005.2
20260504195402 73 179 6.0 16.0 0.00 0.00 0.00 46 1005.1
20260504195323 73 176 6.0 16.0 0.00 0.00 0.00 45 1005.2
20260504195202 73 174 6.0 16.0 0.00 0.00 0.00 46 1005.1
20260504195102 73 174 6.0 16.0 0.00 0.00 0.00 45 1005.2
20260504194902 73 169 6.0 16.0 0.00 0.00 0.00 46 1005.2
20260504194602 73 179 5.0 16.0 0.00 0.00 0.00 47 1005.0
20260504194302 73 177 5.0 13.0 0.00 0.00 0.00 47 1005.0
20260504194002 73 179 5.0 13.0 0.00 0.00 0.00 46 1005.1
20260504193923 73 177 5.0 13.0 0.00 0.00 0.00 46 1005.1
20260504193602 73 189 5.0 14.0 0.00 0.00 0.00 47 1005.4
20260504193323 73 196 5.0 14.0 0.00 0.00 0.00 47 1005.5
20260504193212 73 194 6.0 14.0 0.00 0.00 0.00 44 1005.6
20260504193103 72 194 6.0 14.0 0.00 0.00 0.00 47 1005.5
20260504192923 72 202 6.0 14.0 0.00 0.00 0.00 46 1005.6
20260504192602 72 198 6.0 13.0 0.00 0.00 0.00 49 1005.5
20260504192502 72 200 6.0 13.0 0.00 0.00 0.00 48 1005.4
20260504192402 72 200 6.0 13.0 0.00 0.00 0.00 47 1005.6
20260504192304 72 200 6.0 13.0 0.00 0.00 0.00 47 1005.5
20260504192102 72 206 6.0 16.0 0.00 0.00 0.00 47 1005.6